Weather Roundup
Issued by NWS Chicago, IL

Home | Current Version | Previous Version | Text Only | Print | Product List | Glossary On
Versions: 1 2 3 4 5 6 7 8 9 10 11 12 13 14 15 16 17 18 19 20 21 22 23 24 25 26 27 28 29 30 31 32 33 34 35 36 37 38 39 40 41 42 43 44 45 46 47 48 49 50
000
NZUS59 KLOT 261604
HRRLOT

CHICAGO AREA WEATHER ROUNDUP
NATIONAL WEATHER SERVICE CHICAGO/ROMEOVILLE IL
1100 AM CDT TUE SEP 26 2017

NOTE: "FAIR" INDICATES FEW OR NO CLOUDS BELOW 12,000 FEET WITH NO
SIGNIFICANT WEATHER AND/OR OBSTRUCTIONS TO VISIBILITY.

* THESE STATIONS ARE NOT UNDER NWS QUALITY CONTROL. THEY ALSO MAY NOT
  REPORT WEATHER SUCH AS PRECIPITATION OR FOG.

ILZ005-006-012>014-019>023-261700-
NORTHEAST ILLINOIS

CITY           SKY/WX    TMP DP  RH WIND       PRES   REMARKS
OHARE          MOSUNNY   86  63  45 S7        29.95S HX  87
MIDWAY         MOSUNNY   88  62  41 SW10      29.96S HX  88
AURORA         SUNNY     83  67  58 SW7       29.97S HX  85
LANSING*       SUNNY     85  66  53 SW9       29.98S HX  87
JOLIET*        SUNNY     85  66  53 S10       29.97S HX  87
WAUKEGAN       PTSUNNY   84  66  54 S9        29.94S HX  86
DUPAGE AIRPORT SUNNY     84  65  52 S8        29.96S HX  86
WHEELING       PTSUNNY   86  65  49 S8        29.96S HX  88
MORRIS*        SUNNY     86  63  45 SW10      29.96S HX  87
LEWIS AIRPORT* SUNNY     85  64  49 SW10      29.97S HX  86
NORTHERLY ISL    N/A     84  59  42 SW10        N/A  HX  84
$$

WIZ051-052-058>065-066-070>072-261700-
SOUTHEAST WISCONSIN

CITY           SKY/WX    TMP DP  RH WIND       PRES   REMARKS
MILWAUKEE      LGT RAIN  81  62  52 SW10      29.94R HX  82
KENOSHA*       PTSUNNY   84  64  50 S7        29.95S HX  85
RACINE*        PTSUNNY   83  64  52 S6        29.96R HX  84
WAUKESHA       MOSUNNY   77  61  57 S6        29.96R
$$

INZ001>003-010>013-019-020-261700-
NORTHWEST INDIANA

CITY           SKY/WX    TMP DP  RH WIND       PRES   REMARKS
GARY*          MOSUNNY   88  59  37 S7        29.98S HX  87
MICHIGAN CITY* NOT AVBL
RENSSELAER*    NOT AVBL
VALPARAISO     SUNNY     86  64  47 SW10      30.00S HX  87
$$

LMZ740>746-261700-
SOUTHERN LAKE MICHIGAN

STATION/POSITION TIME  SKY/WX   TEMP WIND        PRES    VSBY
                                AIR  DIR/SP/G
                 (UTC)          (F)  (DEG/KT/KT) (MB)    (MI)
HARRISON CRIB    1530            81  190/  9/  9   N/A
BURNHAM HARBOR   1600            86  190/  9/ 11   N/A
CALUMET HARBOR   1530            83  200/  8/ 11 1014.1R
BURNS HARBOR     1540            81  230/  9/ 12 1015.6S
MICHIGAN CITY    1540            80  190/  6/  7   N/A
$$

ABBREVIATIONS USED IN REMARKS
   TC - TEMPERATURE IN CELSIUS
  WCI - WIND CHILL INDEX
   HX - HEAT INDEX
  VSB - VISIBILITY
$$




USA.gov is the U.S. government's official web portal to all federal, state and local government web resources and services.